Location: Ellerstadt
(49.4644°N, 8.2615°E)
Time: 23:40:40
(UTC+00:00)

Daily predictions for brighter satellites

Satellite Brightness Start Highest point End
(mag) Time Altitude Azimuth Time Altitude Azimuth Time Altitude Azimuth
CZ-4B R/B 4.3 20:08:57 10° S 20:13:57 42° W 20:18:58 10° NNW
Spot 2 Rocket 3.6 20:09:08 10° SSE 20:14:09 68° ENE 20:19:13 10° N
Cosmos 1151 Rocket 3.9 20:11:44 10° SSW 20:15:53 54° WNW 20:20:06 10° N
Helios 1B rocket 3.5 20:14:46 10° SSW 20:18:12 37° W 20:21:41 10° NNW
CZ-4B R/B 4.2 20:16:57 10° SSW 20:20:08 31° W 20:23:14 10° NNW
USA 238 DEB 4.2 20:14:51 10° NW 20:22:11 70° SW 20:30:06 10° SSE
USA 238 4.2 20:14:57 10° NW 20:22:17 70° SW 20:30:13 10° SSE
ERS-1 Rocket 3.4 20:19:25 10° S 20:24:23 62° WSW 20:29:23 10° NNW
Cosmos 1437 Rocket 4.1 20:21:46 10° SE 20:24:24 20° E 20:27:04 10° NE
Cosmos 921 Rocket 3.4 20:20:23 10° S 20:24:25 44° ESE 20:28:34 10° NNE
SL-14 R/B 3.4 20:28:42 10° S 20:32:33 59° E 20:36:25 10° NNE
SL-8 R/B 3.7 20:34:26 10° W 20:39:13 75° S 20:43:59 10° ESE
In-Cosmos 22 4.3 20:35:07 10° S 20:40:51 88° W 20:46:32 10° NNE
USA 290 4.5 20:41:46 10° ESE 20:42:30 11° E 20:43:13 10° E
Cosmos 2237 Rocket 2.8 20:37:06 10° NW 20:42:38 54° WSW 20:48:08 10° S
Cosmos 1459 Rocket 4.1 20:36:32 10° N 20:42:52 73° E 20:49:14 10° SSE
Meteor 1-15 Rocket 4.3 20:42:09 10° N 20:47:47 66° ENE 20:53:03 11° SSE
Cosmos 1802 Rocket 4.2 20:41:23 10° N 20:47:48 63° ENE 20:53:56 11° SSE
SL-4 R/B 3.8 20:47:40 12° SE 20:48:27 13° SE 20:50:19 10° ESE
Cosmos 1666 Rocket 4.3 20:45:10 10° NNW 20:49:29 51° W 20:53:47 10° S
Meteor 2-10 Rocket 4.2 20:43:58 10° NNW 20:49:37 59° W 20:55:01 10° S
USA 305 2.6 20:47:34 10° SW 20:51:22 49° SE 20:54:39 10° ENE
Cosmos 1953 3.6 20:50:20 10° NNE 20:53:28 25° ENE 20:56:11 12° ESE
Okean-O 4.2 20:52:22 10° SSW 20:56:15 31° W 21:00:10 10° NNW
Cosmos 1633 Rocket 3.9 20:55:27 10° NNW 20:59:37 48° W 21:03:45 10° SSW
Meteor 1-22 Rocket 4.2 20:54:33 10° NNW 20:59:56 86° W 21:05:14 11° S
Lacrosse 4 Rocket 1.5 20:56:24 10° NW 21:00:37 72° WSW 21:04:06 15° SSE
NOSS 3-4 (A) 3.6 20:57:12 10° SW 21:02:34 71° NW 21:08:36 10° NE
NOSS 3-4 (C) 3.5 20:57:18 10° SW 21:02:40 72° NW 21:08:42 10° NE
Cosmos 1818 3.6 21:00:12 10° SW 21:05:38 84° SE 21:11:08 10° NE
Cosmos 2016 Rocket 4.1 21:00:39 10° N 21:06:59 72° E 21:12:39 14° SSE
Cosmos 1455 3.6 21:08:28 10° NW 21:10:36 21° W 21:12:44 10° SW
Ariane Rocket 3.3 21:09:58 11° S 21:14:50 63° WSW 21:19:54 10° NNW
Cosmos 2297 Rocket 3.3 21:09:51 10° SW 21:15:18 48° NW 21:20:48 10° NNE
USA 59 Rocket 2.4 21:14:17 10° N 21:15:52 13° NNE 21:17:36 10° NE
SPOT 3 Rocket 4.1 21:14:36 10° S 21:19:36 53° W 21:24:41 10° NNW
Cosmos 1470 Rocket 4.4 21:16:00 10° NNW 21:20:09 45° W 21:24:18 10° SSW
GP-B 3.3 21:16:32 10° N 21:20:51 55° E 21:24:00 18° SSE
Cosmos 1758 4.5 21:19:23 10° NNW 21:22:50 35° W 21:26:13 10° SSW
Cosmos 1269 Rocket 4.3 21:20:32 13° S 21:24:57 48° ESE 21:30:02 10° NNE
Cosmos 2084 Rocket 3.7 21:22:23 10° NW 21:26:27 54° SW 21:29:07 20° SSE
Meteor 1-12 Rocket 4.4 21:20:54 10° N 21:26:49 81° ENE 21:31:34 17° SSE
ATLAS CENTAUR R/B 2.5 21:25:27 10° WNW 21:28:45 28° WSW 21:31:05 15° S
Cosmos 489 Rocket 4.5 21:23:59 10° NNW 21:30:14 85° ENE 21:35:02 18° SSE
Cosmos 1933 Rocket 3.7 21:26:58 10° NNW 21:31:22 72° W 21:34:40 17° S
SL-16 R/B 2.4 21:31:52 10° NNW 21:37:30 66° WSW 21:41:38 18° SSE
NOSS 3 (A) 4.2 21:35:39 10° NW 21:38:07 86° SW 21:39:34 28° SE
Terra 4.2 21:36:14 10° SW 21:39:00 16° W 21:41:50 10° NW
Cosmos 1515 Rocket 4.4 21:35:37 10° SSW 21:39:55 50° WNW 21:44:16 10° N
ALOS 2 4.4 21:37:03 11° ESE 21:40:12 22° ENE 21:43:34 10° NNE
Meteor 1-23 Rocket 4.3 21:35:37 10° SSW 21:41:11 81° WNW 21:46:50 10° N
Cosmos 2344 4.2 21:33:43 10° NW 21:41:33 70° NE 21:52:03 10° SE
DELTA 2 DEB (DPAF) 3.8 21:38:04 10° NNE 21:41:58 65° ESE 21:44:30 21° S
Cosmos 1733 Rocket 3.8 21:38:17 10° N 21:42:26 40° ENE 21:45:01 20° SE
Cosmos 2227 Rocket 2.8 21:38:14 10° SW 21:43:46 57° WNW 21:49:22 10° NNE
Cosmos 2233 Rocket 4.1 21:38:21 10° N 21:44:43 86° W 21:49:37 18° S
RESURS DK-1 2.7 21:40:51 10° SW 21:44:49 63° WNW 21:48:49 10° NNE
Cosmos 1869 Rocket 3.6 21:41:16 10° NNW 21:45:40 78° W 21:48:34 21° S
COSMOS 2455 4.4 21:40:50 10° NW 21:45:42 26° WSW 21:50:27 10° SSW
Meteor 1-21 4.3 21:42:07 13° S 21:47:20 89° WNW 21:53:08 10° NNE
Meteor 1-16 Rocket 4.3 21:42:09 10° NNW 21:47:57 86° W 21:52:16 19° S
Cosmos 2263 Rocket 2.2 21:42:34 10° SSW 21:48:14 87° ESE 21:53:59 10° NNE
Okean 2 3.4 21:50:02 25° SSE 21:52:06 56° E 21:55:56 10° NNE
Okean 3 3.5 21:50:57 24° SSE 21:53:14 57° E 21:57:16 10° NNE
CZ-2C R/B 4.3 21:49:25 10° NNE 21:53:42 39° E 21:56:00 23° SSE
Aureole 3 Rocket 3.8 21:52:56 10° NNE 21:55:42 27° ENE 21:57:14 20° ESE
Cosmos 1943 3.3 21:53:24 10° NNW 21:59:08 73° ENE 22:03:04 21° SE
Cosmos 1437 Rocket 4.2 21:56:07 10° SW 21:59:17 31° WNW 22:02:31 10° N
ASTEX 1 3.7 21:54:39 10° NNE 21:59:31 53° E 22:02:22 24° SSE
SeaSat 1 4.1 21:58:45 10° E 22:02:49 27° NE 22:06:55 10° NNW
Geosat 4.3 22:03:18 10° NNE 22:08:18 68° NW 22:13:15 10° SW
Cosmos 2219 3.4 22:03:23 10° SSW 22:09:08 78° WNW 22:14:56 10° NNE
Cosmos 1763 Rocket 3.7 22:04:01 10° NNW 22:09:09 60° ENE 22:12:23 22° SE
COBE Rocket 4.4 22:05:48 10° N 22:10:48 60° WNW 22:15:12 13° SSW
MetOp-A 3.8 22:10:28 25° SSE 22:13:16 77° ENE 22:17:48 10° NNW
Cosmos 1862 Rocket 3.8 22:11:29 27° SSE 22:13:44 58° E 22:18:04 10° NNE
USA 290 2.8 22:14:12 18° SW 22:16:24 53° WNW 22:19:33 10° NNE
Cosmos 1603 4.1 22:11:04 10° NNW 22:16:37 56° NE 22:20:41 18° SE
Cosmos 1271 Rocket 4.2 22:16:29 19° ESE 22:17:21 21° E 22:20:08 10° NE
Cosmos 2082 3.8 22:12:58 11° SSW 22:18:35 85° WNW 22:24:21 10° NNE
Cosmos 2292 Rocket 2.4 22:18:12 40° S 22:19:08 88° W 22:22:03 10° N
USA 305 3.2 22:16:26 10° W 22:20:00 47° NNW 22:22:51 10° NE
SL-8 R/B 4.3 22:16:50 10° W 22:21:14 37° SSW 22:22:54 28° SSE
Okean 1-7 3.4 22:19:41 29° SSE 22:21:23 45° E 22:25:21 10° NNE
SWAS 4.2 22:18:47 10° NNW 22:22:52 86° SW 22:24:44 31° SSE
ARIANE 5 R/B 2.6 22:20:49 28° SSE 22:23:09 90° NW 22:27:39 10° NNW
SL-4 R/B 2.1 22:21:47 10° SW 22:25:47 50° SSE 22:29:40 10° ENE
Cosmos 1953 3.7 22:25:29 10° NNW 22:28:43 28° W 22:30:44 17° SW
Cosmos 1140 Rocket 3.7 22:26:48 14° SSW 22:31:10 71° WNW 22:36:18 10° NNE
Spot 4 3.8 22:30:33 28° SSE 22:33:09 82° ENE 22:38:01 10° NNW
Cosmos 1703 3.2 22:34:57 30° SSW 22:36:27 63° WNW 22:39:56 10° N
Cosmos 2227 4.3 22:33:33 24° S 22:36:51 61° ESE 22:42:24 10° NE
PSLV R/B 4.4 22:32:52 10° NNE 22:36:51 35° E 22:38:27 27° SE
NOSS 3-1 (C) 4.0 22:29:58 10° NW 22:37:03 78° SW 22:43:28 20° SSE
SJ 16-02 3.2 22:38:57 15° ESE 22:40:03 17° E 22:42:46 10° ENE
Cosmos 1072 Rocket 4.4 22:35:24 10° N 22:41:35 87° ENE 22:45:16 26° S
Cosmos 1892 2.3 22:43:00 40° SW 22:43:50 61° WNW 22:46:49 10° N
CZ-4C R/B 4.3 22:47:56 10° N 22:50:53 32° WNW 22:52:42 18° WSW
USA 307 3.3 22:54:11 33° SE 22:54:11 33° SE 22:57:36 10° ENE
Cosmos 407 Rocket 3.5 22:50:55 21° SSW 22:54:20 79° WNW 22:59:28 10° NNE
Cosmos 2228 Rocket 3.5 22:54:32 24° SSW 22:57:03 58° WNW 23:01:27 10° N
Cosmos 1844 Rocket 2.7 22:54:47 26° S 22:58:01 68° ESE 23:03:41 10° NNE
Cosmos 1703 Rocket 3.7 22:59:24 33° SSE 23:01:05 57° E 23:05:19 10° NNE
USA 234 4.1 22:56:01 10° ENE 23:01:37 30° SE 23:03:50 24° SSE
Cosmos 1782 Rocket 4.3 22:57:27 10° N 23:01:42 44° ENE 23:03:54 25° SE
Cosmos 2251 Rocket 3.5 22:59:05 27° SSW 23:02:07 81° ESE 23:07:29 10° NNE
OPS 6432 4.4 22:59:09 10° NW 23:02:28 72° NE 23:03:35 37° ESE
Cosmos 1844 3.7 22:59:50 27° S 23:02:49 66° ESE 23:08:21 10° NNE
Cosmos 1816 Rocket 4.5 22:59:37 26° S 23:03:20 81° E 23:09:41 10° N
USA 59 Rocket 0.1 23:01:55 10° NW 23:05:21 62° NE 23:08:26 19° ESE
Landsat 5 3.9 23:03:30 10° N 23:07:43 59° WNW 23:09:56 26° SW
Cosmos 1954 Rocket 4.1 23:07:46 30° S 23:10:14 59° ESE 23:15:21 10° NNE
ATLAS 3B R/B 4.0 23:03:58 10° NW 23:11:34 47° NNE 23:18:59 10° ESE
Cosmos 540 Rocket 3.8 23:07:15 10° NNW 23:12:14 53° WSW 23:14:32 30° SSW
Cosmos 1190 Rocket 4.0 23:12:31 28° SSW 23:15:23 81° ESE 23:20:41 10° NNE
Tsikada Rocket 4.2 23:12:12 26° SSE 23:15:41 59° E 23:21:51 10° NNE
ALOS 2 3.1 23:14:27 31° SSW 23:16:14 49° W 23:20:32 10° NNW
Meteor 1-24 Rocket 4.0 23:13:40 27° S 23:16:56 64° E 23:22:47 10° NNE
Cosmos 1606 3.7 23:19:43 10° NNE 23:22:25 27° ENE 23:23:21 23° ESE
Cosmos 468 Rocket 4.1 23:18:01 10° NNW 23:23:06 60° WSW 23:25:26 31° S
Cosmos 841 Rocket 3.6 23:19:08 10° NNW 23:24:25 75° ENE 23:27:33 25° SSE
NOSS 3-1 (A) 4.0 23:18:18 10° NW 23:25:26 78° SW 23:32:25 17° SSE
Spot 1 4.5 23:20:57 10° NNE 23:25:54 80° WNW 23:28:37 28° SSW
ATLAS 2AS CENTAUR R/B 3.1 23:25:06 26° S 23:28:57 50° ESE 23:35:36 10° NE
BREEZE-M DEB (TANK) 4.0 23:28:12 29° S 23:29:11 31° SSE 23:32:10 10° E
Meteor 2-5 Rocket 3.9 23:27:46 28° S 23:31:03 76° E 23:37:01 10° NNE
Cosmos 2263 Rocket 4.4 23:28:26 10° W 23:32:55 23° NW 23:37:24 10° NNE
Meteor 2-17 Rocket 4.4 23:30:04 28° S 23:33:30 83° E 23:39:35 10° NNE
H-2A R/B 3.9 23:31:18 15° ESE 23:33:34 26° ENE 23:36:39 10° N
Cosmos 2034 Rocket 4.2 23:28:16 10° NNW 23:34:25 64° W 23:37:59 26° SSW
Cosmos 1833 Rocket 3.5 23:33:09 10° NNW 23:38:36 48° NE 23:44:01 10° SE
SeaSat 1 2.5 23:37:33 30° S 23:39:54 64° WSW 23:44:47 10° NW
Cosmos 1908 Rocket 4.3 23:36:13 10° NNW 23:40:19 41° W 23:42:02 28° SW
USA 305 4.1 23:46:10 10° WNW 23:48:53 26° N 23:50:57 10° ENE
Cosmos 1271 Rocket 3.9 23:50:19 21° WSW 23:51:53 30° WNW 23:55:09 10° N
CZ-2C R/B 4.0 23:49:36 10° NNE 23:54:41 38° E 23:57:35 21° SSE
